Weather History for Panama City, FL

Change the Weather History Date:

Saturday, July 27, 2013

  Actual Average Record
Temperature  
Mean Temperature 82 °F -  
Max Temperature 89 °F - 93 °F (2010)
Min Temperature 75 °F - 73 °F (2012)
Degree Days  
Heating Degree Days 0    
Cooling Degree Days 17    
Growing Degree Days 31 (Base 50)    
Moisture  
Dew Point 73 °F    
Average Humidity 77    
Maximum Humidity 94    
Minimum Humidity 59    
Precipitation  
Precipitation 0.01 in - 0.77 in (2012)
Month to date precipitation  
Year to date precipitation  
Sea Level Pressure  
Sea Level Pressure 29.99 in    
Wind  
Wind Speed 2 mph (WNW)    
Max Wind Speed 16 mph    
Max Gust Speed 23 mph    
Visibility 8 miles    
Events      
T = Trace of Precipitation, MM = Missing Value Source: NWS Daily Summary

Daily Weather History Graph

Daily Weather History Graph

Search for Another Location

Airport:

Trip Planner

Search our weather history database for the weather conditions in past years. The results will help you decide how hot, cold, wet, or windy it might be!

Date:

Astronomy

Jul. 27, 2013 Rise Set
Actual Time 6:58 AM EDT 8:40 PM EDT
Civil Twilight 6:32 AM EDT 9:06 PM EDT
Nautical Twilight 6:00 AM EDT 9:38 PM EDT
Astronomical Twilight 5:27 AM EDT 10:11 PM EDT
Moon 11:57 PM EDT (7/27) 12:09 PM EDT (7/27)
Length of Visible Light 14h 34m
Length of Day
13h 41m
Waning Gibbous, 71% of the Moon is Illuminated
Jul 27
Waning Gibbous
Jul 29
Last Quarter
Aug 6
New
Aug 14
First Quarter
Aug 20
Full

Hourly Weather History & Observations

Time (EDT) Temp. Heat Index Dew Point Humidity Pressure Visibility Wind Dir Wind Speed Gust Speed Precip Events Conditions
12:53 AM 78.1 °F - 73.9 °F 87% 30.01 in 7.0 mi Calm Calm - N/A   Clear
1:53 AM 77.0 °F - 73.9 °F 90% 30.00 in 7.0 mi Calm Calm - N/A   Clear
2:53 AM 75.9 °F - 73.0 °F 91% 29.99 in 5.0 mi Calm Calm - N/A   Clear
3:53 AM 75.0 °F - 73.0 °F 94% 29.99 in 5.0 mi Calm Calm - N/A   Scattered Clouds
4:53 AM 75.0 °F - 73.0 °F 94% 29.98 in 5.0 mi Calm Calm - N/A   Partly Cloudy
5:53 AM 77.0 °F - 75.0 °F 94% 29.98 in 6.0 mi Calm Calm - 0.01 in   Partly Cloudy
6:53 AM 75.9 °F - 73.9 °F 94% 29.99 in 6.0 mi Calm Calm - N/A   Partly Cloudy
7:53 AM 77.0 °F - 73.9 °F 90% 30.01 in 6.0 mi Calm Calm - N/A   Partly Cloudy
8:53 AM 81.0 °F 87.9 °F 77.0 °F 88% 30.01 in 6.0 mi Calm Calm - N/A   Clear
9:53 AM 82.0 °F 91.0 °F 78.1 °F 88% 30.01 in 7.0 mi Calm Calm - N/A   Partly Cloudy
10:53 AM 84.0 °F 92.6 °F 75.9 °F 76% 30.01 in 10.0 mi West 6.9 mph - N/A   Scattered Clouds
11:53 AM 87.1 °F 96.3 °F 75.0 °F 67% 30.01 in 10.0 mi Calm Calm - N/A   Partly Cloudy
12:53 PM 87.1 °F 93.6 °F 72.0 °F 61% 29.99 in 10.0 mi South 5.8 mph - 0.00 in   Partly Cloudy
1:53 PM 87.1 °F 95.4 °F 73.9 °F 65% 29.99 in 10.0 mi SW 3.5 mph - N/A   Scattered Clouds
2:53 PM 84.9 °F 90.1 °F 71.1 °F 63% 29.99 in 10.0 mi WNW 17.3 mph 23.0 mph N/A   Overcast
3:09 PM 82.4 °F 86.3 °F 69.8 °F 66% 29.95 in 10.0 mi NW 9.2 mph 21.9 mph N/A   Mostly Cloudy
3:53 PM 84.0 °F 87.8 °F 69.1 °F 61% 29.98 in 10.0 mi North 3.5 mph - N/A   Scattered Clouds
4:53 PM 82.0 °F 85.9 °F 70.0 °F 67% 29.97 in 10.0 mi Calm Calm - N/A   Partly Cloudy
5:53 PM 81.0 °F 85.2 °F 72.0 °F 74% 29.97 in 10.0 mi Variable 5.8 mph - N/A   Scattered Clouds
6:53 PM 79.0 °F - 73.0 °F 82% 29.96 in 10.0 mi North 3.5 mph - N/A   Clear
7:53 PM 79.0 °F - 73.0 °F 82% 29.96 in 9.0 mi Calm Calm - N/A   Mostly Cloudy
8:53 PM 77.0 °F - 73.9 °F 90% 29.97 in 9.0 mi East 3.5 mph - N/A   Mostly Cloudy
9:53 PM 77.0 °F - 73.9 °F 90% 29.99 in 8.0 mi Calm Calm - 0.00 in   Partly Cloudy
10:53 PM 77.0 °F - 73.0 °F 88% 29.99 in 8.0 mi Calm Calm - N/A   Scattered Clouds
11:53 PM 77.0 °F - 73.0 °F 88% 29.99 in 9.0 mi Calm Calm - N/A   Overcast